Regional Weather Roundup
Issued by NWS Burlington, VT

Current Version | Previous Version | Text Only | Print | Product List | Glossary On
Versions: 1 2 3 4 5 6 7 8 9 10 11 12 13 14 15 16 17 18 19 20 21 22 23 24 25 26 27
000
ASUS41 KBTV 250010
RWRBTV
VERMONT REGIONAL WEATHER ROUNDUP
NATIONAL WEATHER SERVICE BURLINGTON VT
800 PM EDT FRI OCT 24 2014

NOTE: "FAIR" INDICATES FEW OR NO CLOUDS BELOW 12,000 FEET WITH NO
SIGNIFICANT WEATHER AND/OR OBSTRUCTIONS TO VISIBILITY.

* THESE REPORTS ARE NOT UNDER NWS QUALITY CONTROL AND/OR DO NOT
  REPORT WEATHER SUCH AS PRECIPITATION AND FOG.

VTZ001>019-250100-
_____VERMONT_____


CITY           SKY/WX    TMP DP  RH WIND       PRES   REMARKS
BURLINGTON     CLOUDY    47  41  80 E3        29.84F
6HR MIN TEMP:  46; 6HR MAX TEMP:  48; 6HR PCP: TRACE;

MONTPELIER     CLOUDY    43  40  89 NW7       29.85S
6HR MIN TEMP:  42; 6HR MAX TEMP:  43; 6HR PCP: TRACE;

MORRISVILLE    CLOUDY    45  38  76 CALM      29.84S
6HR MIN TEMP:  43; 6HR MAX TEMP:  46;

ST. JOHNSBURY*   N/A     44  41  89 MISG      29.79R
6HR MIN TEMP:  43; 6HR MAX TEMP:  46; 6HR PCP:  0.01;

LYNDONVILLE*   CLOUDY    43  37  78 NW7       29.81S
6HR MIN TEMP:  43; 6HR MAX TEMP:  44;

MIDDLEBURY*    CLOUDY    46  44  93 N3        29.83F
6HR MIN TEMP:  45; 6HR MAX TEMP:  46;

RUTLAND*       CLOUDY    45  39  81 NW8       29.83R
6HR MIN TEMP:  43; 6HR MAX TEMP:  45;

SPRINGFIELD    CLOUDY    47  40  76 W7        29.79R
6HR MIN TEMP:  46; 6HR MAX TEMP:  49;

HIGHGATE*      FAIR      41  40  97 CALM      29.84S
6HR MIN TEMP:  41; 6HR MAX TEMP:  48;

NEWPORT*       CLOUDY    43  37  82 NW3       29.83R
6HR MIN TEMP:  42; 6HR MAX TEMP:  43;

BENNINGTON     CLOUDY    45  42  89 NW6       29.83R
6HR MIN TEMP:  45; 6HR MAX TEMP:  46;

SUTTON*          N/A     41 N/A N/A MISG        N/A

_____LAKE CHAMPLAIN_____


CITY           SKY/WX    TMP DP  RH WIND       PRES   REMARKS
COLCHESTER RF*   N/A     52  43  71 NW9         N/A
DIAMOND ISL*     N/A     52  39  62 NW9         N/A

$$

NYZ007-026>031-035-052-083-250100-
_____NORTHERN NEW YORK_____


CITY           SKY/WX    TMP DP  RH WIND       PRES   REMARKS
PLATTSBURGH    CLOUDY    49  41  74 W3        29.84S
6HR MIN TEMP:  48; 6HR MAX TEMP:  51;

SARANAC LAKE   CLOUDY    41  40  96 CALM      29.85R
6HR MIN TEMP:  41; 6HR MAX TEMP:  47;

MASSENA        CLOUDY    50  43  77 SW5       29.85S
6HR MIN TEMP:  48; 6HR MAX TEMP:  60;

OGDENSBURG*    CLEAR     48  43  81 SW3       29.85S
POTSDAM*       CLEAR     46  45  93 SW3       29.85F
WATERTOWN      CLEAR     50  43  77 S7        29.88S
6HR MIN TEMP:  49; 6HR MAX TEMP:  59;

FT DRUM        CLEAR     49  46  90 SW12      29.87S
6HR MIN TEMP:  49; 6HR MAX TEMP:  60;

ALBANY         CLOUDY    47  44  90 N6        29.86R
6HR MIN TEMP:  47; 6HR MAX TEMP:  49; 6HR PCP: TRACE;

GLENS FALLS    CLOUDY    46  43  89 CALM      29.86R
6HR MIN TEMP:  46; 6HR MAX TEMP:  47;


$$
NHZ002-005-011-250100-
_____NEW HAMPSHIRE_____


CITY           SKY/WX    TMP DP  RH WIND       PRES   REMARKS
LEBANON        CLOUDY    48  39  71 N8        29.78S
6HR MIN TEMP:  47; 6HR MAX TEMP:  50;

KEENE          CLOUDY    48  36  61 N8        29.77S
6HR MIN TEMP:  48; 6HR MAX TEMP:  50;

MT WASHINGTON  FOG       36  36 100 N37G46      N/A  VSB 1/16
6HR MIN TEMP:  32; 6HR MAX TEMP:  39; 6HR PCP:  0.01;

PLYMOUTH       CLOUDY    46  44  92 W12G18    29.74R
6HR MIN TEMP:  46; 6HR MAX TEMP:  48;

WHITEFIELD     LGT RAIN  44  42  93 CALM      29.78S FOG
6HR MIN TEMP:  44; 6HR MAX TEMP:  46; 6HR PCP: TRACE;


$$

_____REGIONAL QUEBEC LOCATIONS_____


CITY           SKY/WX    TMP DP  RH WIND       PRES   REMARKS
MONTREAL       PTCLDY    50  41  71 SW9       29.83S
QUEBEC CITY    MOCLDY    41  36  81 SW3       29.81S
SHERBROOKE     CLOUDY    43  36  75 W6        29.80

_____REGIONAL ONTARIO LOCATIONS_____


CITY           SKY/WX    TMP DP  RH WIND       PRES   REMARKS
OTTAWA         PTCLDY    50  37  62 W5        29.84S

______KEY______
VSB  - VISIBILITY IN MILES
WCI  - WIND CHILL INDEX
HX   - HEAT INDEX
$$
NNNN



USA.gov is the U.S. government's official web portal to all federal, state and local government web resources and services.